Location: Carabito
(9.8355°N, 67.9249°W)
Time: 11:03:05
(UTC+00:00)

Cosmos 1943 - Pass Details

Date: 23 May 2024
Orbit: 834 x 848 km, 71.0° (Epoch: 24 June)

Event Time Altitude Azimuth Distance (km) Brightness Sun altitude
Exits shadow 00:26:30 24° 53° (NE) 1,669 4.5 -23.2°
Drops below altitude 10° 00:29:00 10° 37° (NE) 2,461 5.5 -23.7°
Sets 00:31:35 0° 30° (NNE) 3,394 6.3 -24.3°
